384P/Kowalski (2019)

Japanese version
Home page
Updated on August 15, 2020

---------------------------------------------------------------------

* Profile

Designation 384P/2019 O1
Recovery Date July 27, 2019
Magnitude 20.0 mag
Recoverer Hidetaka Sato (Tokyo, Japan)

* Pictures

* Orbital Elements

Epoch 2019 Oct. 4.0 TT = JDT 2458760.5                                          
T 2019 Oct. 11.41149 TT                                 Bell                    
q   1.1163599            (2000.0)            P               Q                  
n   0.19936172     Peri.   37.64385     +0.84867481     -0.52876174             
a   2.9020721      Node   354.23469     +0.44925471     +0.73335023             
e   0.6153232      Incl.    7.28121     +0.27914381     +0.42732712             
P   4.94                                                                        
From 534 observations 2014 Oct. 18-2020 Jan. 20, mean residual 0".5.            

* Finding Charts

* Magnitudes Graph

        m1 = 19.0 + 5 log d + 10.0 log r(t - 30)

---------------------------------------------------------------------

The orbital elements are published on M.P.E.C. 2020-C98.
The charts are made with StellaNavigator Ver.10 (AstroArts).
The magnitudes graphs are made with Comet for Windows.

---------------------------------------------------------------------

Copyright(C) Seiichi Yoshida (comet@aerith.net). All rights reserved.